TimeCST,TemperatureF,Dew PointF,Humidity,Sea Level PressureIn,VisibilityMPH,Wind Direction,Wind SpeedMPH,Gust SpeedMPH,PrecipitationIn,Events,Conditions,WindDirDegrees,DateUTC
12:15 AM,8.6,3.2,79,30.38,10.0,NE,5.8,-,N/A,,Overcast,50,2014-01-09 06:15:00
12:35 AM,8.6,3.2,79,30.38,10.0,NE,5.8,-,N/A,,Overcast,40,2014-01-09 06:35:00
12:55 AM,8.6,5.0,85,30.38,10.0,NNE,4.6,-,N/A,,Overcast,30,2014-01-09 06:55:00
1:15 AM,8.6,5.0,85,30.37,10.0,NNE,4.6,-,N/A,,Overcast,30,2014-01-09 07:15:00
1:35 AM,10.4,5.0,79,30.37,10.0,Calm,Calm,-,N/A,,Mostly Cloudy,0,2014-01-09 07:35:00
1:55 AM,10.4,5.0,79,30.37,10.0,ENE,5.8,-,N/A,,Partly Cloudy,60,2014-01-09 07:55:00
2:15 AM,10.4,5.0,79,30.36,10.0,ENE,6.9,-,N/A,,Clear,60,2014-01-09 08:15:00
2:35 AM,10.4,5.0,79,30.36,10.0,East,4.6,-,N/A,,Clear,90,2014-01-09 08:35:00
2:55 AM,8.6,3.2,79,30.35,10.0,ENE,4.6,-,N/A,,Clear,60,2014-01-09 08:55:00
3:15 AM,8.6,3.2,79,30.35,10.0,NE,4.6,-,N/A,,Scattered Clouds,50,2014-01-09 09:15:00
3:35 AM,10.4,5.0,79,30.35,10.0,ENE,3.5,-,N/A,,Overcast,60,2014-01-09 09:35:00
3:55 AM,10.4,5.0,79,30.34,10.0,East,4.6,-,N/A,,Overcast,80,2014-01-09 09:55:00
4:15 AM,12.2,5.0,73,30.33,10.0,East,4.6,-,N/A,,Overcast,80,2014-01-09 10:15:00
4:35 AM,12.2,6.8,79,30.32,10.0,ESE,3.5,-,N/A,,Overcast,110,2014-01-09 10:35:00
4:55 AM,12.2,6.8,79,30.32,10.0,East,4.6,-,N/A,,Overcast,100,2014-01-09 10:55:00
5:15 AM,12.2,6.8,79,30.32,10.0,East,3.5,-,N/A,,Overcast,90,2014-01-09 11:15:00
5:35 AM,12.2,6.8,79,30.31,-9999.0,ESE,5.8,-,N/A,,Overcast,120,2014-01-09 11:35:00
5:55 AM,12.2,6.8,79,30.31,10.0,SE,5.8,-,N/A,,Overcast,130,2014-01-09 11:55:00
6:15 AM,12.2,6.8,79,30.29,10.0,East,4.6,-,N/A,,Overcast,100,2014-01-09 12:15:00
6:35 AM,12.2,5.0,73,30.29,10.0,East,4.6,-,N/A,,Overcast,90,2014-01-09 12:35:00
6:55 AM,10.4,5.0,79,30.28,10.0,East,4.6,-,N/A,,Overcast,100,2014-01-09 12:55:00
7:15 AM,10.4,5.0,79,30.28,10.0,Calm,Calm,-,N/A,,Partly Cloudy,0,2014-01-09 13:15:00
7:35 AM,10.4,5.0,79,30.27,10.0,East,5.8,-,N/A,,Clear,80,2014-01-09 13:35:00
7:55 AM,8.6,5.0,85,30.26,10.0,East,4.6,-,N/A,,Clear,90,2014-01-09 13:55:00
8:15 AM,10.4,5.0,79,30.26,10.0,East,4.6,-,N/A,,Clear,80,2014-01-09 14:15:00
8:35 AM,10.4,5.0,79,30.26,10.0,East,4.6,-,N/A,,Clear,90,2014-01-09 14:35:00
8:55 AM,10.4,5.0,79,30.26,10.0,Calm,Calm,-,N/A,,Partly Cloudy,0,2014-01-09 14:55:00
9:15 AM,10.4,5.0,79,30.26,10.0,ESE,4.6,-,N/A,,Mostly Cloudy,110,2014-01-09 15:15:00
9:35 AM,12.2,6.8,79,30.26,10.0,SE,5.8,-,N/A,,Overcast,130,2014-01-09 15:35:00
9:55 AM,14.0,8.6,79,30.26,10.0,SSE,6.9,-,N/A,,Overcast,150,2014-01-09 15:55:00
10:15 AM,14.0,8.6,79,30.26,10.0,SSE,6.9,-,N/A,,Overcast,160,2014-01-09 16:15:00
10:35 AM,15.8,10.4,79,30.25,10.0,SSE,9.2,-,N/A,,Overcast,150,2014-01-09 16:35:00
10:55 AM,17.6,12.2,79,30.24,10.0,SSE,6.9,-,N/A,,Overcast,160,2014-01-09 16:55:00
11:15 AM,17.6,12.2,79,30.22,10.0,SSE,9.2,-,N/A,,Overcast,160,2014-01-09 17:15:00
11:35 AM,19.4,14.0,80,30.21,10.0,South,6.9,-,N/A,,Overcast,170,2014-01-09 17:35:00
11:55 AM,19.4,14.0,80,30.20,10.0,SSE,6.9,-,N/A,,Overcast,160,2014-01-09 17:55:00
12:15 PM,21.2,15.8,80,30.18,10.0,South,9.2,-,N/A,,Overcast,170,2014-01-09 18:15:00
12:35 PM,21.2,15.8,80,30.17,10.0,SSE,8.1,-,N/A,,Overcast,160,2014-01-09 18:35:00
12:55 PM,21.2,15.8,80,30.16,10.0,South,10.4,-,N/A,,Overcast,170,2014-01-09 18:55:00
1:15 PM,21.2,15.8,80,30.15,10.0,South,8.1,-,N/A,,Overcast,190,2014-01-09 19:15:00
1:35 PM,23.0,17.6,80,30.14,10.0,South,6.9,-,N/A,,Overcast,180,2014-01-09 19:35:00
1:55 PM,23.0,17.6,80,30.13,10.0,South,8.1,-,N/A,,Overcast,170,2014-01-09 19:55:00
2:35 PM,23.0,17.6,80,30.11,10.0,SE,9.2,-,N/A,,Overcast,140,2014-01-09 20:35:00
2:55 PM,23.0,17.6,80,30.11,10.0,SSE,9.2,-,N/A,,Overcast,150,2014-01-09 20:55:00
3:15 PM,23.0,17.6,80,30.11,10.0,SSE,8.1,-,N/A,,Overcast,150,2014-01-09 21:15:00
3:35 PM,23.0,17.6,80,30.10,10.0,SSE,8.1,-,N/A,,Overcast,160,2014-01-09 21:35:00
3:55 PM,23.0,17.6,80,30.10,10.0,SSE,8.1,-,N/A,,Overcast,150,2014-01-09 21:55:00
4:15 PM,23.0,17.6,80,30.10,10.0,SSE,9.2,-,N/A,,Overcast,150,2014-01-09 22:15:00
5:15 PM,23.0,17.6,80,30.08,9.0,SE,6.9,-,N/A,,Overcast,140,2014-01-09 23:15:00
5:35 PM,21.2,17.6,86,30.07,10.0,ESE,6.9,-,N/A,,Overcast,120,2014-01-09 23:35:00
5:55 PM,21.2,17.6,86,30.07,10.0,Variable,5.8,-,N/A,,Scattered Clouds,0,2014-01-09 23:55:00
6:15 PM,21.2,17.6,86,30.07,10.0,SSE,3.5,-,N/A,,Mostly Cloudy,160,2014-01-10 00:15:00
6:35 PM,21.2,17.6,86,30.07,10.0,South,4.6,-,N/A,,Overcast,170,2014-01-10 00:35:00
6:55 PM,21.2,17.6,86,30.07,10.0,SSE,5.8,-,N/A,,Overcast,150,2014-01-10 00:55:00
7:15 PM,23.0,19.4,86,30.07,10.0,SSE,5.8,-,N/A,,Overcast,160,2014-01-10 01:15:00
7:35 PM,23.0,19.4,86,30.07,10.0,SSE,6.9,-,N/A,,Overcast,160,2014-01-10 01:35:00
7:55 PM,23.0,19.4,86,30.07,10.0,South,5.8,-,N/A,,Overcast,170,2014-01-10 01:55:00
8:15 PM,23.0,19.4,86,30.07,9.0,South,8.1,-,N/A,,Overcast,170,2014-01-10 02:15:00
8:35 PM,23.0,19.4,86,30.06,9.0,South,8.1,-,N/A,,Overcast,170,2014-01-10 02:35:00
8:55 PM,23.0,19.4,86,30.05,7.0,SSE,10.4,-,N/A,,Overcast,160,2014-01-10 02:55:00
9:15 PM,23.0,21.2,93,30.04,5.0,SSE,11.5,-,N/A,,Overcast,150,2014-01-10 03:15:00
9:35 PM,23.0,21.2,93,30.03,3.0,SSE,11.5,-,N/A,,Overcast,150,2014-01-10 03:35:00
9:55 PM,23.0,23.0,100,30.04,3.0,SSE,9.2,-,N/A,,Overcast,160,2014-01-10 03:55:00
10:15 PM,23.0,23.0,100,30.02,3.0,SSE,9.2,-,N/A,,Overcast,150,2014-01-10 04:15:00
10:35 PM,23.0,21.2,93,30.02,5.0,SSE,12.7,-,N/A,,Overcast,160,2014-01-10 04:35:00
10:55 PM,24.8,21.2,86,30.00,5.0,SSE,13.8,20.7,N/A,,Overcast,150,2014-01-10 04:55:00
11:15 PM,24.8,23.0,93,30.00,4.0,SSE,12.7,-,N/A,,Overcast,160,2014-01-10 05:15:00
11:35 PM,24.8,24.8,100,29.99,1.5,SSE,12.7,-,N/A,,Overcast,150,2014-01-10 05:35:00
11:55 PM,24.8,24.8,100,29.98,1.5,SSE,12.7,-,N/A,,Overcast,150,2014-01-10 05:55:00